Retour au catalogue

STARLINK-34462

ActifCommunicationsVLEO
NORAD 64493·PAYLOAD·🇺🇸 United States

Lancé Jun 23, 2025 depuis Cape Canaveral Space Force Station

Loading…

Prochains Passages (prochaines 24 heures)

TLE

FraisSource: CelesTrak SupGP

Époque: Sep 14, 2026, 22:51 UTC

1 64493C 25133X   26257.95256944  .00037707  00000+0  11141-2 0  2576
2 64493  53.1588 311.9036 0001279  85.6476  32.2059 15.34370868    13

Suivez STARLINK-34462 en temps réel avec AllMySat

Download on the App Store